Location: *
(46.0770°N, 1.6444°E)
Time: 08:20:31
(UTC+00:00)

ADEOS Rocket - Pass Details

Date: 16 September 2019
Orbit: 859 x 1306 km, 98.7° (Epoch: 19 October)

Event Time Altitude Azimuth Distance (km) Brightness Sun altitude
Rises 20:06:52 0° 13° (NNE) 4,009 6.4 -21.3°
Reaches altitude 10° 20:09:22 10° 14° (NNE) 3,100 5.8 -21.6°
Maximum altitude 20:16:36 89° 286° (WNW) 1,255 3.5 -22.7°
Drops below altitude 10° 20:24:19 10° 197° (SSW) 3,299 5.6 -23.9°
Sets 20:27:03 0° 197° (SSW) 4,279 6.2 -24.3°
